Regional Weather Roundup
Issued by NWS Northern Indiana

Home | Current Version | Previous Version | Graphics & Text | Print | Product List | Glossary On
Versions: 1 2 3 4 5 6 7 8 9 10 11 12 13 14 15 16 17 18 19 20 21 22 23 24 25 26 27 28 29 30 31 32 33 34 35 36 37 38 39 40 41 42 43 44 45 46 47 48 49 50
000
ASUS43 KIWX 020800
RWRIWX

KIWX WEATHER ROUNDUP
NATIONAL WEATHER SERVICE NORTHERN INDIANA
400 AM EDT TUE SEP 02 2014

NOTE: "FAIR" INDICATES FEW OR NO CLOUDS BELOW 12,000 FEET WITH NO
SIGNIFICANT WEATHER AND/OR OBSTRUCTIONS TO VISIBILITY.

* THESE STATIONS ARE NOT UNDER NWS QUALITY CONTROL. THEY ALSO MAY NOT
  REPORT WEATHER SUCH AS PRECIPITATION OR FOG.

INZ001>027-020900-
NORTHERN INDIANA

CITY           SKY/WX    TMP DP  RH WIND       PRES   REMARKS
VALPARAISO     CLOUDY    71  65  81 SW6       29.88S
KNOX*          CLOUDY    67  64  90 SW5       29.88R
SOUTH BEND     CLOUDY    69  65  86 W6        29.87F
GOSHEN         CLOUDY    70  65  84 SW6       29.87F
MONTICELLO*    LGT RAIN  69  67  94 SW14      29.92R
ANGOLA*        CLEAR     70  63  78 SW5       29.88F
FORT WAYNE     CLOUDY    69  66  90 S7        29.92S
PERU/GRISSOM   RAIN      69  69 100 SW15      29.93R

$$
INZ028>050-020900-
CENTRAL INDIANA

CITY           SKY/WX    TMP DP  RH WIND       PRES   REMARKS
LAFAYETTE      LGT RAIN  67  66  97 W5        29.92R
KOKOMO*        CLOUDY    70  64  83 SW15      29.94S
MUNCIE*        LGT RAIN  72  68  87 SW7       29.95R
INDIANAPOLIS   TSTM      69  66  90 W12       29.97R

$$
MIZ043>046-050>051-056>058-064>065-071>073-077>080-020900-
SOUTHWEST LOWER MICHIGAN

CITY           SKY/WX    TMP DP  RH WIND       PRES   REMARKS
BATTLE CREEK   CLOUDY    71  66  84 SW8       29.87R
BENTON HARBOR  CLOUDY    70  67  90 VRB5      29.84F
COLDWATER*     CLOUDY    70  67  91 SW5       29.88F
HILLSDALE*     CLOUDY    70  68  93 SW3       29.89F
HOLLAND        MOCLDY    70  65  84 NW3       29.85S
GRAND RAPIDS   MOCLDY    70  68  93 W6        29.84S
KALAMAZOO      CLOUDY    71  65  81 SW5       29.86F
STURGIS*         N/A     68  66  94 W5        29.87F
THREE RIVERS*  FAIR      70  66  87 S5        29.87F

$$
OHZ001>008-015>018-024>025-020900-
NORTHWEST OHIO

CITY           SKY/WX    TMP DP  RH WIND       PRES   REMARKS
DEFIANCE       MOCLDY    69  64  84 SW6       29.90F
FINDLAY        CLEAR     69  66  90 SW6       29.91S
TOLEDO EXPRESS PTCLDY    71  65  81 W7        29.87F
TOLEDO METCALF CLEAR     71  66  84 SW7       29.89R
LIMA           PTCLDY    72  69  90 SW8       29.94S

$$
&&



USA.gov is the U.S. government's official web portal to all federal, state and local government web resources and services.